Airport Information

KMFR - Rogue Valley Intl Medford Airport

KMFR 131253Z AUTO 00000KT 5SM BR CLR M03/M04 A3036 RMK AO2 SLP292 T10331039


  • General Information

  • Coordinates: N 42°22'27"/ W 122°52'24"
  • Location: N/A
  • Surveyed Elevation: 1335 MSL

Operations

Flow Name Active Runways Conditions

Green background denotes normal operations.


Common Frequencies

Callsign Frequency Position Name

More at the Document Center


Charts

Under Construction